x

8461490 - New London, Ct (nlnc3) Weather Station

8:18am - Sat 23rd Sep 2017 All times are EDT. -4 hours from GMT.

  • Wind
    6mph, 14mph gusts
  • Sea Temp 67°f
  • Air Temp 67°f
  • Sea Pressure 1014.7mb
  • 8461490 - New London, Ct
  • 8461490 - New London, Ct

More Historic Weather Station data

Upgrade to MSW Pro to gain access to the past 30 days of data for over 8000 Wavebouys and Weather Stations around the globe.

Join

Comparision Forecast

View Surf forecast
   
Sat 09/23 8:18am 6 14 mph 1014.7mb 67f 67f
8:12am 7 13 mph 1014.7mb 67f 67f
8:06am 3 10 mph 1014.6mb 66f 67f
8:00am 7 14 mph 1014.5mb 66f 67f
7:54am 3 9 mph 1014.3mb 66f 67f
7:48am 6 13 mph 1014.3mb 66f 67f
7:42am 6 11 mph 1014.3mb 66f 67f
7:36am 3 13 mph 1014.2mb 66f 67f
7:30am 6 13 mph 1014.1mb 66f 66f
7:24am 6 13 mph 1014mb 66f 66f
7:18am 7 14 mph 1013.9mb 66f 66f
7:12am 3 11 mph 1013.8mb 66f 66f
7:06am 3 16 mph 1013.9mb 66f 66f
7:00am 7 11 mph 1013.7mb 66f 66f
6:54am 7 15 mph 1013.8mb 66f 66f
6:48am 8 14 mph 1013.7mb 66f 66f
6:42am 6 15 mph 1013.8mb 66f 66f
6:36am 7 14 mph 1013.8mb 66f 66f
6:30am 6 14 mph 1013.8mb 66f 66f
6:24am 5 14 mph 1013.9mb 66f 66f
6:18am 7 21 mph 1013.8mb 66f 66f
6:12am 9 14 mph 1013.8mb 66f 66f
6:06am 5 14 mph 1013.8mb 66f 66f
6:00am 3 17 mph 1013.8mb 66f 66f
5:54am 6 15 mph 1013.8mb 66f 66f
5:48am 5 13 mph 1013.8mb 66f 66f
5:42am 3 11 mph 1013.7mb 66f 66f
5:36am 5 15 mph 1013.6mb 66f 66f
5:30am 7 14 mph 1013.7mb 66f 66f
5:24am 6 10 mph 1013.6mb 66f 66f
5:18am 6 15 mph 1013.6mb 66f 66f
5:12am 7 14 mph 1013.6mb 66f 66f
5:06am 6 14 mph 1013.6mb 66f 66f
5:00am 6 14 mph 1013.6mb 66f 66f
4:54am 6 11 mph 1013.6mb 66f 66f
4:48am 5 13 mph 1013.6mb 67f 67f
4:42am 6 16 mph 1013.6mb 66f 67f
4:36am 3 13 mph 1013.5mb 66f 66f
4:30am 3 11 mph 1013.4mb 66f 66f
4:24am 7 14 mph 1013.3mb 66f 66f
4:18am 10 18 mph 1013.3mb 66f 66f
4:12am 6 14 mph 1013.4mb 66f 66f
4:06am 5 17 mph 1013.4mb 66f 66f
4:00am 7 18 mph 1013.2mb 66f 66f
3:54am 6 11 mph 1013.2mb 66f 66f
3:48am 6 15 mph 1013.2mb 66f 66f
3:42am 6 13 mph 1013.2mb 66f 66f
3:36am 7 16 mph 1013.4mb 66f 66f
3:30am 5 15 mph 1013.3mb 66f 66f
3:24am 6 15 mph 1013.3mb 66f 66f
3:18am 6 10 mph 1013.4mb 66f 66f
3:12am 8 16 mph 1013.3mb 66f 66f
3:06am 5 11 mph 1013.2mb 66f 66f
3:00am 6 15 mph 1013.1mb 66f 66f
2:54am 7 14 mph 1013mb 67f 66f
2:48am 7 16 mph 1012.9mb - -
2:42am 7 13 mph 1012.9mb - -
2:36am 5 9 mph 1013.1mb - -
2:30am 2 9 mph 1013.1mb 67f 66f
2:24am 5 9 mph 1013.1mb 66f 66f
2:18am 5 9 mph 1013.1mb 67f 66f
2:12am 3 9 mph 1013.2mb 67f 66f
2:06am 5 10 mph 1013.2mb 67f 66f
2:00am 6 13 mph 1013.2mb 67f 66f
1:54am 5 11 mph 1013.2mb 67f 66f
1:48am 5 13 mph 1013.2mb 67f 66f
1:42am 5 11 mph 1013.3mb 67f 66f
1:36am 6 13 mph 1013.2mb 67f 66f
1:30am 6 18 mph 1013.2mb 67f 66f
1:24am 5 14 mph 1013.3mb 67f 66f
1:18am 6 14 mph 1013.3mb 67f 66f
1:12am 9 15 mph 1013.3mb 67f 66f
1:06am 5 15 mph 1013.2mb 67f 66f
1:00am 7 14 mph 1013.1mb 67f 66f
12:54am 7 15 mph 1013.1mb 67f 66f
12:48am 7 15 mph 1013.1mb 67f 66f
12:42am 6 14 mph 1013.1mb 67f 65f
12:36am 6 11 mph 1013.1mb 67f 65f
12:30am 3 14 mph 1013.2mb 67f 65f
12:24am 6 11 mph 1013.1mb 67f 65f
12:18am 5 13 mph 1013.2mb 67f 65f
12:12am 6 13 mph 1013.3mb 67f 65f
12:06am 5 10 mph 1013.2mb 67f 65f
12:00am 6 13 mph 1013.2mb 67f 65f
Fri 09/22 11:54pm 8 17 mph 1013.3mb 67f 65f
11:48pm 5 10 mph 1013.3mb 67f 65f
11:42pm 8 20 mph 1013.3mb 67f 65f
11:36pm 9 17 mph 1013.3mb 67f 65f
11:30pm 5 17 mph 1013.2mb 66f 65f
11:24pm 7 16 mph 1013.2mb 67f 65f
11:18pm 3 13 mph 1013.4mb 67f 64f
11:12pm 5 16 mph 1013.4mb 67f 64f
11:06pm 6 14 mph 1013.5mb 67f 64f
11:00pm 2 14 mph 1013.5mb 67f 64f
10:54pm 8 15 mph 1013.3mb 67f 64f
10:48pm 10 18 mph 1013.4mb 67f 64f
10:42pm 8 16 mph 1013.4mb 67f 64f
10:36pm 5 14 mph 1013.5mb 67f 64f
10:30pm 6 15 mph 1013.5mb 67f 64f
10:24pm 7 15 mph 1013.6mb 67f 64f
10:18pm 5 16 mph 1013.6mb 67f 64f
10:12pm 5 14 mph 1013.8mb 67f 65f
10:06pm 7 15 mph 1013.7mb 67f 65f
10:00pm 8 18 mph 1013.6mb 67f 65f
9:54pm 7 17 mph 1013.4mb 67f 65f
9:48pm 7 16 mph 1013.3mb 67f 65f
9:42pm 7 16 mph 1013.3mb 67f 65f
9:36pm 8 15 mph 1013.4mb 67f 65f
9:30pm 6 13 mph 1013.2mb 67f 65f
9:24pm 6 14 mph 1013.3mb 67f 65f
9:18pm 10 18 mph 1013.3mb 67f 65f
9:12pm 9 21 mph 1013.4mb 67f 65f
9:06pm 8 21 mph 1013.4mb 67f 65f
9:00pm 6 14 mph 1013.3mb 67f 65f
8:54pm 7 15 mph 1013mb 67f 65f
8:48pm 7 16 mph 1013.2mb 67f 65f
8:42pm 5 14 mph 1013.2mb 67f 65f
8:36pm 6 14 mph 1013.3mb 67f 65f
8:30pm 8 22 mph 1013.4mb 67f 65f
8:24pm 6 17 mph 1013.4mb 67f 66f
8:18pm 3 14 mph 1013.4mb 67f 66f
8:12pm 3 15 mph 1013.3mb 67f 66f
8:06pm 9 20 mph 1013.2mb 67f 66f
8:00pm 5 13 mph 1013.3mb 67f 66f
7:54pm 7 16 mph 1013.4mb 67f 66f
7:48pm 5 22 mph 1013.3mb 67f 66f
7:42pm 7 18 mph 1013.3mb 67f 66f
7:36pm 8 22 mph 1013.1mb 67f 66f
7:30pm 13 22 mph 1013mb 67f 66f
7:24pm 3 16 mph 1012.9mb 67f 66f
7:18pm 7 17 mph 1012.8mb 67f 66f
7:12pm 5 16 mph 1012.9mb 67f 66f
7:06pm 5 18 mph 1012.9mb 67f 66f
7:00pm 7 14 mph 1012.9mb 67f 66f
6:54pm 6 14 mph 1012.9mb 67f 66f
6:48pm 8 14 mph 1013mb 67f 66f
6:42pm 6 18 mph 1013.1mb 67f 66f
6:36pm 8 17 mph 1013.1mb 67f 66f
6:30pm 5 17 mph 1013.1mb 67f 66f
6:24pm 6 13 mph 1013.1mb 67f 66f
6:18pm 7 16 mph 1013.2mb 67f 66f
6:12pm 6 14 mph 1013.1mb 67f 66f
6:06pm 8 22 mph 1013.1mb 67f 66f
6:00pm 5 22 mph 1013.1mb 67f 66f
5:54pm 3 14 mph 1013.1mb 67f 66f
5:48pm 7 17 mph 1013mb 67f 66f
5:42pm 7 15 mph 1013.2mb 67f 67f
5:36pm 8 18 mph 1013.2mb 67f 67f
5:30pm 7 18 mph 1013.1mb 67f 67f
5:24pm 6 16 mph 1012.9mb 67f 67f
5:18pm 7 15 mph 1013mb 67f 67f
5:12pm 8 16 mph 1012.9mb 67f 67f
5:06pm 5 17 mph 1013mb 67f 67f
5:00pm 7 15 mph 1013mb 67f 67f
4:54pm 7 16 mph 1012.9mb 67f 67f
4:48pm 7 15 mph 1012.9mb 67f 67f
4:42pm 8 20 mph 1013mb 67f 67f
4:36pm 5 14 mph 1013mb 67f 67f
4:30pm 3 11 mph 1013mb 67f 67f
4:24pm 6 13 mph 1013.1mb 67f 67f
4:18pm 7 20 mph 1013.1mb 67f 67f
4:12pm 7 15 mph 1013mb 67f 67f
4:06pm 7 14 mph 1013.1mb 67f 67f
4:00pm 6 15 mph 1013.1mb 67f 67f
3:54pm 6 16 mph 1013mb 67f 67f
3:48pm 6 17 mph 1013mb 67f 67f
3:42pm 6 14 mph 1012.8mb 67f 67f
3:36pm 5 14 mph 1012.8mb 67f 68f
3:30pm 7 14 mph 1012.7mb 67f 68f
3:24pm 8 15 mph 1012.8mb 67f 69f
3:18pm 6 18 mph 1012.8mb 67f 69f
3:12pm 7 15 mph 1012.8mb 67f 69f
3:06pm 7 16 mph 1012.7mb 67f 69f
3:00pm 7 11 mph 1012.7mb 67f 69f
2:54pm 5 14 mph 1012.8mb 67f 68f
2:48pm 2 9 mph 1012.8mb 67f 68f
2:42pm 5 14 mph 1012.9mb 67f 68f
2:36pm 5 11 mph 1012.9mb 67f 68f
2:30pm 8 15 mph 1013mb 67f 67f
2:24pm 7 22 mph 1013.1mb 67f 67f
2:18pm 10 18 mph 1013mb 67f 68f
2:12pm 9 21 mph 1012.9mb 67f 68f
2:06pm 8 20 mph 1012.9mb 67f 68f
2:00pm 9 17 mph 1013mb 67f 69f
1:54pm 8 18 mph 1012.9mb 67f 69f
1:48pm 6 17 mph 1013.1mb 67f 69f
1:42pm 6 14 mph 1012.9mb 67f 69f
1:36pm 6 13 mph 1013mb 67f 68f
1:30pm 9 15 mph 1013.1mb 67f 68f
1:24pm 10 22 mph 1013mb 67f 68f
1:18pm 5 15 mph 1013.2mb 67f 67f
1:12pm 7 18 mph 1013.3mb 67f 67f
1:06pm 6 22 mph 1013.5mb 67f 68f
1:00pm 7 18 mph 1013.6mb 67f 68f
12:54pm 9 21 mph 1013.5mb 67f 68f
12:48pm 8 16 mph 1013.6mb 67f 68f
12:42pm 7 15 mph 1013.6mb 67f 68f
12:36pm 10 20 mph 1013.5mb 67f 68f
12:30pm 10 21 mph 1013.4mb 67f 68f
12:24pm 10 17 mph 1013.5mb 67f 68f
12:18pm 8 20 mph 1013.6mb 67f 68f
12:12pm 9 18 mph 1013.6mb 67f 68f
12:06pm 7 22 mph 1013.6mb 67f 69f
12:00pm 9 21 mph 1013.4mb 67f 68f
11:54am 10 18 mph 1013.4mb 67f 68f
11:48am 13 18 mph 1013.5mb 67f 68f
11:42am 6 11 mph 1013.5mb 67f 67f
11:36am 9 22 mph 1013.6mb 67f 67f
11:30am 11 17 mph 1013.6mb 67f 67f
11:24am 6 15 mph 1013.7mb 67f 67f
11:18am 6 15 mph 1013.6mb 67f 67f
11:12am 9 23 mph 1013.4mb 67f 67f
11:06am 11 25 mph 1013.3mb 67f 67f
11:00am 11 23 mph 1013.3mb 67f 67f
10:54am 10 22 mph 1013.5mb 67f 67f
10:48am 9 22 mph 1013.7mb 67f 67f
10:42am 10 20 mph 1013.6mb 67f 67f
10:36am 9 22 mph 1013.5mb 67f 67f
10:30am 13 20 mph 1013.6mb 67f 66f
10:24am 7 17 mph 1013.6mb 67f 66f
10:18am 11 18 mph 1013.7mb 67f 66f
10:12am 9 18 mph 1013.6mb 67f 66f
10:06am 13 20 mph 1013.6mb 67f 66f
10:00am 8 16 mph 1013.6mb 67f 66f
9:54am 10 21 mph 1013.5mb 67f 66f
9:48am 11 20 mph 1013.4mb 67f 66f
9:42am 9 21 mph 1013.4mb 67f 66f
9:36am 8 20 mph 1013.6mb 67f 66f
9:30am 9 15 mph 1013.3mb 67f 66f
9:24am 7 18 mph 1013.5mb 67f 66f
9:18am 7 18 mph 1013.6mb 67f 66f
9:12am 14 24 mph 1013.6mb 67f 65f
9:06am 5 10 mph 1013.7mb 67f 65f
9:00am 7 17 mph 1013.5mb 67f 65f
8:54am 6 17 mph 1013.5mb 67f 65f
8:48am 7 14 mph 1013.5mb 67f 65f
8:42am 8 15 mph 1013.5mb 67f 65f
8:36am 7 14 mph 1013.6mb 67f 65f
8:30am 6 13 mph 1013.5mb 67f 65f
8:24am 5 14 mph 1013.5mb 67f 65f
8:18am 7 15 mph 1013.5mb 67f 65f
8:12am 7 17 mph 1013.6mb 67f 65f
8:06am 6 17 mph 1013.6mb 67f 65f
8:00am 7 17 mph 1013.5mb 67f 64f
7:54am 7 14 mph 1013.6mb 67f 64f
7:48am 7 15 mph 1013.5mb 67f 65f
7:42am 9 17 mph 1013.4mb 67f 64f
7:36am 5 15 mph 1013.4mb 67f 65f
7:30am 9 16 mph 1013.3mb 67f 64f
7:24am 5 18 mph 1013.3mb 67f 64f
7:18am 7 22 mph 1013.3mb 67f 64f
7:12am 8 20 mph 1013.3mb 67f 64f
7:06am 7 15 mph 1013.2mb 67f 64f
7:00am 6 17 mph 1013.3mb 67f 64f
6:54am 8 22 mph 1013.2mb 67f 65f
6:48am 5 17 mph 1013.2mb 67f 65f
6:42am 6 11 mph 1013.3mb 67f 65f
6:36am 5 15 mph 1013.2mb 67f 65f
6:30am 6 10 mph 1013.2mb 67f 65f
6:24am 3 14 mph 1013.2mb 67f 65f
6:18am 6 16 mph 1013mb 67f 65f
6:12am 8 20 mph 1013mb 67f 65f
6:06am 8 21 mph 1012.9mb 67f 65f
6:00am 9 15 mph 1012.9mb 67f 65f
5:54am 8 16 mph 1012.9mb 67f 65f
5:48am 7 16 mph 1012.8mb 67f 65f
5:42am 9 17 mph 1012.8mb 67f 65f
5:36am 7 14 mph 1012.8mb 67f 65f
5:30am 2 18 mph 1012.9mb 67f 65f
5:24am 9 21 mph 1012.6mb 67f 65f
5:18am 10 17 mph 1012.5mb 67f 65f
5:12am 8 15 mph 1012.7mb 67f 65f
5:06am 7 14 mph 1012.6mb 67f 65f
5:00am 5 13 mph 1012.8mb 67f 65f
4:54am 5 10 mph 1012.7mb 67f 65f
4:48am 8 17 mph 1012.7mb 67f 65f
4:42am 5 13 mph 1012.6mb 67f 65f
4:36am 5 16 mph 1012.6mb 67f 65f
4:30am 9 16 mph 1012.6mb 67f 65f
4:24am 6 15 mph 1012.8mb 67f 65f
4:18am 8 17 mph 1012.7mb 67f 65f
4:12am 5 20 mph 1012.9mb 67f 65f
4:06am 6 11 mph 1012.9mb 67f 65f
4:00am 5 14 mph 1012.9mb 67f 65f
3:54am 6 18 mph 1012.9mb 67f 65f
3:48am 13 21 mph 1012.8mb 67f 65f
3:42am 7 14 mph 1012.9mb 67f 65f
3:36am 6 15 mph 1013mb 67f 65f
3:30am 7 13 mph 1012.9mb 67f 65f
3:24am 7 17 mph 1012.9mb 67f 65f
3:18am 8 15 mph 1012.8mb 67f 66f
3:12am 6 13 mph 1012.9mb 67f 66f
3:06am 9 16 mph 1012.7mb 67f 66f
3:00am 6 18 mph 1012.8mb 67f 66f
2:54am 13 20 mph 1012.8mb 67f 66f
2:48am 3 15 mph 1013mb 67f 66f
2:42am 6 18 mph 1013mb 67f 66f
2:36am 7 18 mph 1013mb 67f 66f
2:30am 11 20 mph 1012.9mb 67f 66f
2:24am 6 13 mph 1013.3mb 67f 66f
2:18am 6 17 mph 1013.4mb 67f 66f
2:12am 7 17 mph 1013.3mb 67f 66f
2:06am 11 20 mph 1013.4mb 67f 66f
2:00am 8 17 mph 1013.4mb 67f 67f
1:54am 3 15 mph 1013.7mb 67f 67f
1:48am 7 18 mph 1013.9mb - -
1:42am 6 20 mph 1013.9mb - -
1:36am 8 14 mph 1014mb - -
1:30am 3 15 mph 1014.1mb 67f 67f
1:24am 3 17 mph 1013.9mb 67f 67f
1:18am 6 11 mph 1014mb 67f 67f
1:12am 7 18 mph 1014.1mb 67f 67f
1:06am 6 17 mph 1014mb 67f 67f
1:00am 7 15 mph 1013.9mb 67f 67f
12:54am 7 17 mph 1014.1mb 67f 67f
12:48am 6 15 mph 1014.1mb 67f 67f
12:42am 9 16 mph 1014.1mb 67f 67f
12:36am 6 13 mph 1014.2mb 67f 67f
12:30am 6 11 mph 1014.3mb 67f 67f
12:24am 5 11 mph 1014.3mb 67f 67f
12:18am 2 13 mph 1014.2mb 67f 68f
12:12am 5 11 mph 1014.1mb 67f 68f
12:06am 7 15 mph 1014.1mb 67f 68f
12:00am 6 14 mph 1014.1mb 67f 68f
Thu 09/21 11:54pm 6 13 mph 1014.2mb 67f 68f
11:48pm 6 10 mph 1014.4mb 67f 68f
11:42pm 3 14 mph 1014.3mb 67f 68f
11:36pm 6 11 mph 1014.3mb 67f 68f
11:30pm 6 16 mph 1014.2mb 67f 69f
11:24pm 3 13 mph 1014.1mb 67f 68f
11:18pm 6 13 mph 1014.2mb 67f 69f
11:12pm 6 16 mph 1014.2mb 67f 69f
11:06pm 5 14 mph 1014.3mb 67f 69f
11:00pm 6 13 mph 1014.3mb 67f 69f
10:54pm 5 9 mph 1014.3mb 67f 69f
10:48pm 5 10 mph 1014.4mb 67f 69f
10:42pm 6 11 mph 1014.4mb 67f 69f
10:36pm 6 14 mph 1014.3mb 67f 69f
10:30pm 7 14 mph 1014.3mb 67f 69f
10:24pm 5 15 mph 1014.2mb 67f 69f
10:18pm 3 11 mph 1014.3mb 67f 69f
10:12pm 5 14 mph 1014.3mb 67f 69f
10:06pm 10 17 mph 1014.4mb 67f 69f
10:00pm 8 15 mph 1014.5mb 67f 69f
9:54pm 8 17 mph 1014.5mb 67f 69f
9:48pm 9 17 mph 1014.5mb 67f 69f
9:42pm 6 14 mph 1014.6mb 67f 69f
9:36pm 7 16 mph 1014.6mb 67f 69f
9:30pm 7 17 mph 1014.7mb 67f 69f
9:24pm 7 17 mph 1014.7mb 67f 69f
9:18pm 10 16 mph 1014.7mb 67f 69f
9:12pm 6 13 mph 1014.7mb 67f 69f
9:06pm 9 15 mph 1014.7mb 67f 69f
9:00pm 3 17 mph 1014.7mb 67f 69f
8:54pm 5 14 mph 1014.7mb 67f 69f
8:48pm 5 14 mph 1014.6mb 67f 69f
8:42pm 7 14 mph 1014.6mb 67f 69f
8:36pm 5 15 mph 1014.6mb 67f 69f
8:30pm 7 14 mph 1014.6mb 67f 69f
8:24pm 5 11 mph 1014.6mb 67f 69f
8:18pm 6 11 mph 1014.7mb 68f 69f
8:12pm 6 15 mph 1014.7mb 68f 69f
8:06pm 7 14 mph 1014.8mb 68f 69f
8:00pm 5 11 mph 1014.8mb 68f 69f
7:54pm 3 9 mph 1014.8mb 68f 69f
7:48pm 3 14 mph 1014.8mb 68f 69f
7:42pm 6 13 mph 1014.7mb 68f 69f
7:36pm 8 15 mph 1014.7mb 68f 69f
7:30pm 9 16 mph 1014.6mb 68f 70f
7:24pm 8 15 mph 1014.5mb 68f 70f
7:18pm 9 15 mph 1014.5mb 68f 69f
7:12pm 7 11 mph 1014.5mb 67f 70f
7:06pm 3 9 mph 1014.5mb 68f 69f
7:00pm 7 14 mph 1014.4mb 68f 70f
6:54pm 7 14 mph 1014.3mb 68f 70f
6:48pm 8 16 mph 1014.3mb 68f 70f
6:42pm 7 13 mph 1014.3mb 68f 70f
6:36pm 8 15 mph 1014.2mb 68f 70f
6:30pm 8 13 mph 1014.2mb 68f 70f
6:24pm 7 14 mph 1014.2mb 68f 70f
6:18pm 9 15 mph 1014.2mb 68f 70f
6:12pm 7 13 mph 1014.2mb 68f 70f
6:06pm 7 16 mph 1014.2mb 68f 70f
6:00pm 9 15 mph 1014.1mb 68f 70f
5:54pm 6 14 mph 1014mb 68f 70f
5:48pm 6 16 mph 1014mb 68f 70f
5:42pm 7 14 mph 1014mb 68f 70f
5:36pm 9 17 mph 1014mb 68f 71f
5:30pm 9 16 mph 1014mb 68f 71f
5:24pm 7 17 mph 1014mb 68f 71f
5:18pm 10 16 mph 1014mb 68f 71f
5:12pm 8 15 mph 1013.9mb 68f 71f
5:06pm 8 15 mph 1013.9mb 68f 71f
5:00pm 10 16 mph 1013.9mb 68f 71f
4:54pm 8 13 mph 1013.9mb 68f 71f
4:48pm 6 11 mph 1013.8mb 68f 71f
4:42pm 5 10 mph 1013.9mb 68f 71f
4:36pm 3 13 mph 1013.8mb 68f 71f
4:30pm 5 14 mph 1013.8mb 68f 71f
4:24pm 6 13 mph 1013.8mb 68f 71f
4:18pm 5 14 mph 1013.9mb 68f 71f
4:12pm 6 13 mph 1013.9mb 68f 71f
4:06pm 7 15 mph 1013.9mb 68f 71f
4:00pm 3 11 mph 1013.9mb 68f 71f
3:54pm 6 13 mph 1013.9mb 68f 71f
3:48pm 6 10 mph 1013.8mb 68f 71f
3:42pm 7 13 mph 1013.7mb 68f 71f
3:36pm 5 10 mph 1013.6mb 68f 71f
3:30pm 5 13 mph 1013.6mb 68f 71f
3:24pm 8 17 mph 1013.5mb 68f 71f
3:18pm 3 15 mph 1013.6mb 68f 71f
3:12pm 7 13 mph 1013.6mb 68f 71f
3:06pm 8 17 mph 1013.6mb 68f 71f
3:00pm 5 10 mph 1013.6mb 68f 71f
2:54pm 5 18 mph 1013.6mb 68f 71f
2:48pm 9 17 mph 1013.7mb 68f 71f
2:42pm 5 15 mph 1013.7mb 68f 71f
2:36pm 11 17 mph 1013.7mb 68f 71f
2:30pm 8 17 mph 1013.8mb 68f 71f
2:24pm 10 21 mph 1013.7mb 68f 71f
2:18pm 6 14 mph 1013.7mb 68f 71f
2:12pm 2 13 mph 1013.9mb 68f 71f
2:06pm 6 14 mph 1013.9mb 68f 71f
2:00pm 6 14 mph 1013.8mb 68f 71f
1:54pm 7 14 mph 1013.8mb 68f 71f
1:48pm 6 14 mph 1013.7mb 68f 71f
1:42pm 6 15 mph 1013.7mb 68f 71f
1:36pm 6 13 mph 1013.7mb 68f 72f
1:30pm 7 17 mph 1013.8mb 68f 72f
1:24pm 6 13 mph 1013.8mb 68f 72f
1:18pm 5 16 mph 1013.8mb 68f 71f
1:12pm 8 20 mph 1013.9mb 68f 72f
1:06pm 5 14 mph 1014mb 68f 71f
1:00pm 5 14 mph 1014.1mb 68f 71f
12:54pm 7 20 mph 1014mb 68f 72f
12:48pm 7 14 mph 1014.1mb 68f 72f
12:42pm 7 14 mph 1014.1mb 68f 72f
12:36pm 3 10 mph 1014.2mb 68f 72f
12:30pm 6 16 mph 1014.3mb 68f 72f
12:24pm 7 11 mph 1014.2mb 68f 71f
12:18pm 5 10 mph 1014.2mb 68f 71f
12:12pm 6 17 mph 1014.2mb 68f 72f
12:06pm 6 13 mph 1014.1mb 68f 72f
12:00pm 7 17 mph 1014.1mb 68f 71f
11:54am 6 14 mph 1014.1mb 68f 72f
11:48am 7 14 mph 1014.1mb 68f 72f
11:42am 3 14 mph 1014.1mb 68f 71f
11:36am 5 11 mph 1014.2mb 68f 71f
11:30am 3 14 mph 1014.2mb 68f 71f
11:24am 3 10 mph 1014.2mb 68f 71f
11:18am 3 13 mph 1014.3mb 68f 71f
11:12am 5 10 mph 1014.2mb 68f 71f
11:06am 6 11 mph 1014.2mb 68f 71f
11:00am 7 16 mph 1014.2mb 68f 71f
10:54am 7 15 mph 1014.2mb 68f 71f
10:48am 5 18 mph 1014.3mb 68f 71f
10:42am 6 13 mph 1014.3mb 68f 71f
10:36am 7 14 mph 1014.2mb 68f 71f
10:30am 6 14 mph 1014.2mb 68f 71f
10:24am 6 14 mph 1014.2mb 68f 71f
10:18am 7 13 mph 1014.2mb 68f 71f
10:12am 8 16 mph 1014.1mb 68f 71f
10:06am 3 13 mph 1014mb 68f 71f
10:00am 5 11 mph 1014mb 68f 71f
9:54am 3 17 mph 1013.9mb 68f 71f
9:48am 8 17 mph 1013.7mb 68f 71f
9:42am 8 17 mph 1013.6mb 68f 71f
9:36am 6 17 mph 1013.5mb 68f 71f
9:30am 8 16 mph 1013.5mb 68f 71f
9:24am 8 16 mph 1013.6mb 68f 71f
9:18am 9 14 mph 1013.7mb 68f 71f
9:12am 7 11 mph 1013.7mb 68f 71f
9:06am 6 13 mph 1013.6mb 68f 71f
9:00am 5 13 mph 1013.5mb 68f 71f
8:54am 6 10 mph 1013.4mb 68f 71f
8:48am 6 15 mph 1013.3mb 68f 71f
8:42am 6 13 mph 1013.2mb 68f 71f
8:36am 7 11 mph 1013.2mb 68f 71f
8:30am 5 10 mph 1013.1mb 68f 71f
8:24am 6 11 mph 1013.1mb 68f 71f
8:18am 5 14 mph 1013mb 68f 71f
8:12am 8 16 mph 1012.7mb 68f 71f
8:06am 6 15 mph 1012.7mb 68f 71f
8:00am 9 14 mph 1012.7mb 68f 71f
7:54am 7 11 mph 1012.7mb 68f 71f
7:48am 5 15 mph 1012.7mb 68f 71f
7:42am 6 18 mph 1012.7mb 68f 71f
7:36am 9 17 mph 1012.7mb 68f 71f
7:30am 6 14 mph 1012.8mb 68f 71f
7:24am 6 11 mph 1012.7mb 68f 71f
7:18am 6 14 mph 1012.6mb 68f 71f
7:12am 8 14 mph 1012.4mb 68f 71f
7:06am 3 14 mph 1012.3mb 68f 71f
7:00am 6 13 mph 1012.3mb 68f 71f
6:54am 7 17 mph 1012.3mb 68f 71f
6:48am 7 14 mph 1012.2mb 68f 71f
6:42am 6 17 mph 1012.2mb 68f 71f
6:36am 7 13 mph 1012.2mb 68f 71f
6:30am 8 14 mph 1012.1mb 68f 71f
6:24am 8 15 mph 1012mb 68f 71f
6:18am 6 14 mph 1012mb 68f 71f
6:12am 7 13 mph 1012mb 68f 71f
6:06am 7 17 mph 1011.9mb 68f 72f
6:00am 9 16 mph 1011.8mb 68f 72f
5:54am 7 14 mph 1011.7mb 68f 72f
5:48am 3 16 mph 1011.7mb 68f 72f
5:42am 7 14 mph 1011.6mb 68f 72f
5:36am 2 10 mph 1011.4mb 68f 72f
5:30am 6 13 mph 1011.3mb 68f 72f
5:24am 3 14 mph 1011.3mb 68f 72f
5:18am 6 15 mph 1011.3mb 68f 72f
5:12am 8 16 mph 1011.1mb 68f 72f
5:06am 6 16 mph 1011.1mb 68f 72f
5:00am 9 15 mph 1011.1mb 68f 72f
4:54am 9 14 mph 1011.1mb 68f 72f
4:48am 3 17 mph 1011mb 68f 72f
4:42am 9 18 mph 1011mb 68f 72f
4:36am 10 20 mph 1011mb 68f 73f
4:30am 8 20 mph 1010.9mb 68f 73f
4:24am 9 18 mph 1010.9mb 68f 73f
4:18am 7 18 mph 1010.9mb 68f 72f
4:12am 9 14 mph 1010.9mb 68f 73f
4:06am 5 14 mph 1010.9mb 68f 72f
4:00am 8 15 mph 1010.9mb 68f 73f
3:54am 11 20 mph 1010.8mb 68f 73f
3:48am 9 16 mph 1010.8mb 68f 73f
3:42am 9 14 mph 1010.8mb 68f 73f
3:36am 3 11 mph 1010.8mb 68f 73f
3:30am 6 14 mph 1010.8mb 68f 73f
3:24am 7 11 mph 1010.8mb 68f 73f
3:18am 5 15 mph 1010.7mb 68f 73f
3:12am 7 15 mph 1010.8mb 68f 73f
3:06am 6 13 mph 1010.8mb 68f 73f
3:00am 7 14 mph 1010.8mb 68f 73f
2:54am 5 14 mph 1010.8mb 68f 73f
2:48am 6 13 mph 1010.7mb 68f 73f
2:42am 5 13 mph 1010.7mb 68f 73f
2:36am 5 11 mph 1010.7mb 68f 73f
2:30am 5 15 mph 1010.6mb 68f 73f
2:24am 8 16 mph 1010.6mb 68f 73f
2:18am 8 14 mph 1010.6mb 68f 73f
2:12am 8 14 mph 1010.5mb 68f 73f
2:06am 7 15 mph 1010.5mb 68f 73f
2:00am 6 15 mph 1010.6mb 68f 73f
1:54am 6 16 mph 1010.7mb 68f 73f
1:48am 5 17 mph 1010.7mb 68f 73f
1:42am 7 16 mph 1010.6mb 68f 73f
1:36am 6 15 mph 1010.7mb 68f 73f
1:30am 6 14 mph 1010.6mb 68f 73f
1:24am 7 16 mph 1010.6mb 68f 73f
1:18am 7 15 mph 1010.5mb 68f 73f
1:12am 6 14 mph 1010.6mb 68f 73f
1:06am 6 14 mph 1010.5mb 68f 73f
1:00am 5 13 mph 1010.5mb 68f 73f
12:54am 8 16 mph 1010.5mb 68f 73f
12:48am 7 16 mph 1010.5mb 68f 73f
12:42am 5 10 mph 1010.6mb 68f 73f
12:36am 6 15 mph 1010.5mb 68f 73f
12:30am 5 10 mph 1010.4mb 68f 73f
12:24am 6 11 mph 1010.4mb 68f 73f
12:18am 5 14 mph 1010.5mb 68f 73f
12:12am 6 14 mph 1010.5mb 68f 73f
12:06am 5 11 mph 1010.5mb 68f 73f
12:00am 5 11 mph 1010.5mb 68f 73f
Wed 09/20 11:54pm 5 13 mph 1010.6mb 68f 73f
11:48pm 8 14 mph 1010.6mb 68f 73f
11:42pm 7 16 mph 1010.6mb 68f 73f
11:36pm 8 15 mph 1010.7mb 68f 73f
11:30pm 6 10 mph 1010.7mb 68f 73f
11:24pm 6 14 mph 1010.6mb 68f 73f
11:18pm 6 13 mph 1010.6mb 68f 73f
11:12pm 6 13 mph 1010.5mb 68f 73f
11:06pm 5 13 mph 1010.5mb 68f 73f
11:00pm 8 14 mph 1010.5mb 68f 73f
10:54pm 8 15 mph 1010.5mb 68f 73f
10:48pm 5 13 mph 1010.6mb 68f 72f
10:42pm 5 14 mph 1010.6mb 68f 72f
10:36pm 8 14 mph 1010.7mb 68f 72f
10:30pm 7 11 mph 1010.7mb 68f 72f
10:24pm 3 13 mph 1010.8mb 68f 72f
10:18pm 3 9 mph 1010.8mb 68f 72f
10:12pm 7 13 mph 1010.8mb 68f 72f
10:06pm 7 15 mph 1010.8mb 68f 72f
10:00pm 5 14 mph 1010.7mb 68f 71f
9:54pm 7 14 mph 1010.6mb 68f 71f
9:48pm 8 14 mph 1010.6mb 68f 71f
9:42pm 9 15 mph 1010.6mb 68f 72f
9:36pm 8 16 mph 1010.6mb 68f 72f
9:30pm 5 13 mph 1010.6mb 68f 72f
9:24pm 10 15 mph 1010.6mb 68f 72f
9:18pm 8 17 mph 1010.6mb 68f 72f
9:12pm 8 14 mph 1010.6mb 68f 72f
9:06pm 7 16 mph 1010.6mb 68f 72f
9:00pm 7 15 mph 1010.6mb 68f 72f
8:54pm 9 16 mph 1010.5mb 68f 72f
8:48pm 8 16 mph 1010.5mb 68f 72f
8:42pm 3 14 mph 1010.6mb 68f 72f
8:36pm 8 15 mph 1010.6mb 68f 71f
8:30pm 7 14 mph 1010.7mb 68f 71f
8:24pm 6 14 mph 1010.7mb 68f 71f
8:18pm 7 14 mph 1010.7mb 68f 71f
8:12pm 6 13 mph 1010.7mb 68f 71f
8:06pm 7 15 mph 1010.7mb 68f 71f
8:00pm 5 11 mph 1010.6mb 68f 71f
7:54pm 6 15 mph 1010.6mb 68f 71f
7:48pm 8 16 mph 1010.5mb 68f 71f
7:42pm 9 16 mph 1010.5mb 68f 71f
7:36pm 8 16 mph 1010.5mb 68f 71f
7:30pm 6 14 mph 1010.4mb 68f 71f
7:24pm 7 15 mph 1010.3mb 68f 71f
7:18pm 9 18 mph 1010.2mb 68f 71f
7:12pm 5 11 mph 1010.2mb 68f 71f
7:06pm 6 14 mph 1010.2mb 68f 71f
7:00pm 2 14 mph 1010.1mb 68f 71f
6:54pm 5 15 mph 1010.1mb 68f 71f
6:48pm 3 14 mph 1010.1mb 68f 71f
6:42pm 7 14 mph 1010mb 68f 71f
6:36pm 6 17 mph 1010mb 68f 72f
6:30pm 8 16 mph 1009.9mb 69f 72f
6:24pm 8 14 mph 1009.9mb 68f 72f
6:18pm 8 17 mph 1010mb 68f 72f
6:12pm 9 14 mph 1009.9mb 68f 72f
6:06pm 9 15 mph 1009.8mb 68f 72f
6:00pm 10 18 mph 1009.7mb 68f 72f
5:54pm 9 16 mph 1009.6mb 69f 72f
5:48pm 9 18 mph 1009.6mb 69f 72f
5:42pm 10 18 mph 1009.5mb 69f 72f
5:36pm 8 16 mph 1009.5mb 69f 72f
5:30pm 8 17 mph 1009.5mb 68f 72f
5:24pm 7 16 mph 1009.4mb 68f 72f
5:18pm 8 15 mph 1009.4mb 68f 72f
5:12pm 6 17 mph 1009.4mb 69f 73f
5:06pm 7 18 mph 1009.3mb 69f 73f
5:00pm 9 21 mph 1009.1mb 69f 73f
4:54pm 14 21 mph 1009mb 69f 73f
4:48pm 13 18 mph 1009mb 68f 73f
4:42pm 9 17 mph 1009mb 68f 73f
4:36pm 8 21 mph 1008.9mb 68f 73f
4:30pm 13 17 mph 1009mb 69f 73f
4:24pm 7 14 mph 1009.1mb 69f 72f
4:18pm 8 21 mph 1009.1mb 69f 72f
4:12pm 8 18 mph 1009.1mb 68f 72f
4:06pm 8 18 mph 1009.1mb 68f 73f
4:00pm 8 16 mph 1009mb 68f 73f
3:54pm 6 15 mph 1009mb 68f 74f
3:48pm 5 16 mph 1008.9mb 68f 73f
3:42pm 7 22 mph 1008.9mb 68f 74f
3:36pm 8 16 mph 1008.9mb 69f 74f
3:30pm 6 20 mph 1008.9mb 68f 74f
3:24pm 7 16 mph 1008.9mb 69f 73f
3:18pm 6 16 mph 1008.9mb 69f 73f
3:12pm 5 15 mph 1008.8mb 69f 73f
3:06pm 7 14 mph 1008.8mb 69f 73f
3:00pm 7 18 mph 1008.8mb 68f 73f
2:54pm 7 14 mph 1008.8mb 68f 72f
2:48pm 6 16 mph 1008.9mb 68f 72f
2:42pm 7 18 mph 1008.9mb 68f 72f
2:36pm 5 14 mph 1008.9mb 68f 73f
2:30pm 6 16 mph 1008.8mb 68f 72f
2:24pm 9 16 mph 1008.8mb 68f 72f
2:18pm 10 18 mph 1008.8mb 68f 73f
2:12pm 8 14 mph 1008.7mb 68f 73f
2:06pm 11 21 mph 1008.6mb 68f 73f
2:00pm 5 14 mph 1008.5mb 68f 73f
1:54pm 7 13 mph 1008.4mb 68f 73f
1:48pm 10 18 mph 1008.4mb 68f 73f
1:42pm 8 17 mph 1008.4mb 68f 73f
1:36pm 8 22 mph 1008.4mb 68f 73f
1:30pm 6 16 mph 1008.4mb 68f 73f
1:24pm 9 17 mph 1008.4mb 68f 73f
1:18pm 7 18 mph 1008.4mb 68f 73f
1:12pm 10 21 mph 1008.4mb 68f 73f
1:06pm 3 16 mph 1008.5mb 68f 73f
1:00pm 6 16 mph 1008.6mb 68f 73f
12:54pm 10 18 mph 1008.6mb 68f 73f
12:48pm 9 16 mph 1008.7mb 68f 73f
12:42pm 8 16 mph 1008.6mb 68f 73f
12:36pm 6 16 mph 1008.8mb 68f 73f
12:30pm 9 13 mph 1008.8mb 68f 73f
12:24pm 8 17 mph 1008.8mb 68f 73f
12:18pm 6 13 mph 1008.8mb 68f 72f
12:12pm 7 14 mph 1008.7mb 68f 73f
12:06pm 6 15 mph 1008.7mb 68f 72f
12:00pm 5 17 mph 1008.7mb 68f 73f
11:54am 6 16 mph 1008.6mb 68f 73f
11:48am 6 16 mph 1008.6mb 68f 73f
11:42am 7 14 mph 1008.5mb 68f 73f
11:36am 6 16 mph 1008.6mb 68f 72f
11:30am 6 11 mph 1008.6mb 68f 72f
11:24am 7 14 mph 1008.6mb 68f 72f
11:18am 8 14 mph 1008.6mb 68f 72f
11:12am 7 13 mph 1008.6mb 68f 72f
11:06am 6 14 mph 1008.7mb 68f 72f
11:00am 5 15 mph 1008.7mb 68f 72f
10:54am 7 14 mph 1008.6mb 68f 72f
10:48am 5 11 mph 1008.6mb 68f 72f
10:42am 6 13 mph 1008.6mb 68f 72f
10:36am 9 18 mph 1008.5mb 68f 71f
10:30am 7 16 mph 1008.5mb 68f 71f
10:24am 7 15 mph 1008.6mb 68f 71f
10:18am 10 17 mph 1008.6mb 68f 71f
10:12am 7 17 mph 1008.7mb 68f 71f
10:06am 7 15 mph 1008.8mb 68f 71f
10:00am 3 14 mph 1008.9mb 68f 71f
9:54am 6 13 mph 1008.9mb 68f 71f
9:48am 9 17 mph 1009mb 68f 71f
9:42am 5 15 mph 1009.1mb 68f 71f
9:36am 7 16 mph 1009mb 68f 71f
9:30am 6 17 mph 1009mb 68f 71f
9:24am 10 18 mph 1009mb 68f 71f
9:18am 8 14 mph 1009.2mb 68f 71f
9:12am 7 13 mph 1009.1mb 68f 71f
9:06am 7 15 mph 1009.1mb 68f 71f
9:00am 5 11 mph 1009mb 68f 71f
8:54am 7 13 mph 1008.9mb 68f 71f
8:48am 5 13 mph 1008.8mb 68f 70f
8:42am 5 15 mph 1008.7mb 68f 70f
8:36am 6 11 mph 1008.7mb 68f 70f
8:30am 5 14 mph 1008.6mb 68f 70f
8:24am 5 11 mph 1008.5mb 68f 70f
8:18am 7 13 mph 1008.5mb 68f 70f
8:12am 6 14 mph 1008.4mb 68f 70f
8:06am 5 11 mph 1008.4mb 68f 70f
8:00am 3 11 mph 1008.5mb 68f 70f
7:54am 3 10 mph 1008.6mb 68f 70f
7:48am 6 13 mph 1008.6mb 68f 70f
7:42am 5 15 mph 1008.6mb 68f 70f
7:36am 6 11 mph 1008.5mb 68f 70f
7:30am 6 14 mph 1008.4mb 68f 70f
7:24am 6 14 mph 1008.4mb 68f 70f
7:18am 5 10 mph 1008.5mb 68f 69f
7:12am 5 14 mph 1008.5mb 68f 69f
7:06am 6 13 mph 1008.4mb 68f 69f
7:00am 6 13 mph 1008.3mb 68f 69f
6:54am 5 10 mph 1008.3mb 68f 69f
6:48am 6 11 mph 1008.4mb 68f 69f
6:42am 7 14 mph 1008.4mb 68f 69f
6:36am 7 14 mph 1008.4mb 68f 69f
6:30am 5 11 mph 1008.4mb 68f 69f
6:24am 5 14 mph 1008.3mb 68f 69f
6:18am 5 16 mph 1008.3mb 68f 70f
6:12am 7 14 mph 1008.2mb 68f 69f
6:06am 7 16 mph 1008.3mb 68f 69f
6:00am 5 14 mph 1008.4mb 68f 69f
5:54am 6 11 mph 1008.4mb 69f 69f
5:48am 3 11 mph 1008.4mb 69f 69f
5:42am 5 9 mph 1008.4mb 68f 69f
5:36am 3 9 mph 1008.4mb 69f 69f
5:30am 6 11 mph 1008.4mb 69f 69f
5:24am 5 11 mph 1008.4mb 69f 69f
5:18am 2 11 mph 1008.4mb 69f 68f
5:12am 5 11 mph 1008.4mb 69f 68f
5:06am 6 11 mph 1008.3mb 69f 68f
5:00am 6 9 mph 1008.4mb 69f 68f
4:54am 5 9 mph 1008.5mb 69f 68f
4:48am 3 10 mph 1008.4mb 69f 68f
4:42am 5 14 mph 1008.3mb 69f 68f
4:36am 5 10 mph 1008.3mb 69f 68f
4:30am 6 13 mph 1008.4mb 69f 68f
4:24am 2 11 mph 1008.5mb 69f 68f
4:18am 5 8 mph 1008.6mb 69f 68f
4:12am 5 10 mph 1008.6mb 69f 68f
4:06am 5 11 mph 1008.6mb 69f 68f
4:00am 5 10 mph 1008.7mb 69f 68f
3:54am 7 14 mph 1008.7mb 69f 68f
3:48am 6 14 mph 1008.8mb 69f 68f
3:42am 7 16 mph 1008.7mb 69f 68f
3:36am 6 13 mph 1008.7mb 69f 68f
3:30am 6 13 mph 1008.7mb 69f 68f
3:24am 5 10 mph 1008.8mb 69f 68f
3:18am 5 13 mph 1008.7mb 69f 68f
3:12am 6 14 mph 1008.7mb 69f 68f
3:06am 5 14 mph 1008.9mb 69f 68f
3:00am 7 13 mph 1009mb 69f 68f
2:54am 5 9 mph 1009.2mb 69f 68f
2:48am 5 10 mph 1009.3mb 69f -
2:42am 3 14 mph 1009.3mb 69f -
2:36am 7 13 mph 1009.1mb 69f -
2:30am 5 14 mph 1009.2mb 69f 68f
2:24am 6 14 mph 1009.3mb 69f 68f
2:18am 5 10 mph 1009.6mb 69f 68f
2:12am 5 10 mph 1009.7mb 69f 68f
2:06am 5 9 mph 1009.7mb 69f 67f
2:00am 3 13 mph 1009.9mb 69f 68f
1:54am 5 15 mph 1009.8mb 69f 68f
1:48am 6 9 mph 1009.9mb - -
1:42am 7 14 mph 1010mb - -
1:36am 6 13 mph 1010mb - -
1:30am 6 11 mph 1010.2mb 69f 68f
1:24am 6 11 mph 1010.4mb 69f 68f
1:18am 3 13 mph 1010.4mb 69f 68f
1:12am 7 13 mph 1010.3mb 69f 68f
1:06am 3 8 mph 1010.5mb 69f 68f
1:00am 6 11 mph 1010.4mb 69f 68f
12:54am 5 8 mph 1010.5mb 69f 68f
12:48am 3 10 mph 1010.5mb 69f 68f
12:42am 7 17 mph 1010.4mb 69f 68f
12:36am 5 8 mph 1010.5mb 69f 68f
12:30am 5 14 mph 1010.5mb 69f 68f
12:24am 5 10 mph 1010.5mb 69f 68f
12:18am 3 8 mph 1010.6mb 69f 68f
12:12am 6 13 mph 1010.5mb 69f 68f
12:06am 6 13 mph 1010.5mb 69f 68f
12:00am 5 13 mph 1010.7mb 69f 68f
Tue 09/19 11:54pm 5 11 mph 1010.7mb 69f 68f
11:48pm 5 11 mph 1010.8mb 69f 68f
11:42pm 3 13 mph 1010.8mb 69f 68f
11:36pm 3 9 mph 1010.8mb 69f 68f
11:30pm 5 9 mph 1010.8mb 69f 68f
11:24pm 3 10 mph 1010.8mb 69f 68f
11:18pm 6 10 mph 1010.8mb 68f 68f
11:12pm 7 11 mph 1010.9mb 69f 68f
11:06pm 5 10 mph 1010.9mb 69f 68f
11:00pm 6 10 mph 1011.1mb 69f 69f
10:54pm 7 10 mph 1011.2mb 68f 69f
10:48pm 5 13 mph 1011.2mb 68f 69f
10:42pm 3 11 mph 1011.2mb 68f 69f
10:36pm 3 10 mph 1011.3mb 68f 69f
10:30pm 7 11 mph 1011.2mb 68f 69f
10:24pm 6 10 mph 1011.2mb 68f 69f
10:18pm 7 11 mph 1011.3mb 69f 69f
10:12pm 6 11 mph 1011.4mb 68f 69f
10:06pm 6 10 mph 1011.4mb 68f 69f
10:00pm 6 11 mph 1011.5mb 68f 69f
9:54pm 6 10 mph 1011.5mb 68f 69f
9:48pm 5 10 mph 1011.5mb 68f 69f
9:42pm 5 9 mph 1011.6mb 68f 69f
9:36pm 6 10 mph 1011.5mb 68f 69f
9:30pm 5 9 mph 1011.5mb 68f 69f
9:24pm 5 13 mph 1011.5mb 68f 69f
9:18pm 3 11 mph 1011.5mb 68f 69f
9:12pm 5 10 mph 1011.6mb 68f 69f
9:06pm 5 9 mph 1011.7mb 68f 69f
9:00pm 6 13 mph 1011.7mb 68f 69f
8:54pm 5 11 mph 1011.7mb 68f 69f
8:48pm 3 9 mph 1011.8mb 68f 69f
8:42pm 5 10 mph 1011.7mb 68f 69f
8:36pm 5 10 mph 1011.8mb 68f 69f
8:30pm 5 10 mph 1011.8mb 68f 69f
8:24pm 5 13 mph 1011.9mb 68f 69f
8:18pm 6 13 mph 1011.8mb 68f 69f
8:12pm 5 10 mph 1011.8mb 68f 69f
8:06pm 5 13 mph 1011.7mb 68f 69f
8:00pm 5 10 mph 1011.5mb 68f 69f
7:54pm 6 10 mph 1011.6mb 68f 69f
7:48pm 6 11 mph 1011.5mb 68f 69f
7:42pm 8 18 mph 1011.5mb 68f 69f
7:36pm 6 11 mph 1011.6mb 68f 69f
7:30pm 3 10 mph 1011.7mb 68f 69f
7:24pm 6 14 mph 1011.8mb 68f 69f
7:18pm 6 9 mph 1011.9mb 68f 69f
7:12pm 6 10 mph 1011.9mb 68f 69f
7:06pm 5 10 mph 1012mb 68f 69f
7:00pm 5 10 mph 1012.1mb 68f 69f
6:54pm 6 10 mph 1012.2mb 68f 69f
6:48pm 6 8 mph 1012.2mb 67f 69f
6:42pm 5 9 mph 1012.3mb 67f 69f
6:36pm 6 13 mph 1012.3mb 67f 69f
6:30pm 6 11 mph 1012.3mb 67f 69f
6:24pm 7 11 mph 1012.2mb 67f 69f
6:18pm 7 11 mph 1012.2mb 67f 69f
6:12pm 3 10 mph 1012.3mb 67f 69f
6:06pm 6 10 mph 1012.3mb 67f 69f
6:00pm 5 9 mph 1012.3mb 68f 69f
5:54pm 5 8 mph 1012.3mb 67f 69f
5:48pm 5 9 mph 1012.4mb 67f 69f
5:42pm 5 11 mph 1012.3mb 67f 69f
5:36pm 5 10 mph 1012.3mb 67f 69f
5:30pm 3 8 mph 1012.4mb 68f 69f
5:24pm 6 11 mph 1012.5mb 68f 69f
5:18pm 5 9 mph 1012.6mb 69f 69f
5:12pm 6 9 mph 1012.6mb 69f 69f
5:06pm 8 14 mph 1012.7mb 69f 69f
5:00pm 7 17 mph 1012.7mb 69f 70f
4:54pm 7 11 mph 1012.7mb 69f 71f
4:48pm 7 13 mph 1012.5mb 69f 72f
4:42pm 5 9 mph 1012.5mb 69f 72f
4:36pm 7 11 mph 1012.5mb 69f 72f
4:30pm 7 11 mph 1012.4mb 69f 72f
4:24pm 6 10 mph 1012.5mb 69f 72f
4:18pm 5 11 mph 1012.4mb 69f 72f
4:12pm 5 10 mph 1012.5mb 69f 73f
4:06pm 6 13 mph 1012.6mb 69f 72f
4:00pm 5 9 mph 1012.6mb 69f 72f
3:54pm 6 11 mph 1012.7mb 69f 72f
3:48pm 6 10 mph 1012.7mb 69f 72f
3:42pm 3 14 mph 1012.8mb 69f 72f
3:36pm 6 16 mph 1012.7mb 69f 72f
3:30pm 8 13 mph 1012.7mb 69f 72f
3:24pm 6 11 mph 1012.7mb 69f 72f
3:18pm 6 14 mph 1012.7mb 69f 72f
3:12pm 6 13 mph 1012.8mb 69f 72f
3:06pm 6 13 mph 1012.9mb 69f 72f
3:00pm 5 13 mph 1012.9mb 69f 71f
2:54pm 6 13 mph 1013mb 69f 72f
2:48pm 5 16 mph 1013.1mb 69f 72f
2:42pm 6 11 mph 1013mb 69f 71f
2:36pm 5 13 mph 1013.1mb 69f 71f
2:30pm 6 13 mph 1013.3mb 69f 71f
2:24pm 7 16 mph 1013.4mb 69f 71f
2:18pm 7 15 mph 1013.4mb 69f 71f
2:12pm 6 13 mph 1013.4mb 69f 71f
2:06pm 6 13 mph 1013.7mb 69f 71f
2:00pm 6 17 mph 1013.9mb 69f 71f
1:54pm 6 13 mph 1014.1mb 69f 71f
1:48pm 6 11 mph 1014.2mb 69f 71f
1:42pm 7 11 mph 1014.4mb 69f 71f
1:36pm 7 11 mph 1014.5mb 69f 71f
1:30pm 5 9 mph 1014.6mb 69f 70f
1:24pm 6 10 mph 1014.7mb 69f 70f
1:18pm 3 10 mph 1014.7mb 69f 70f
1:12pm 3 14 mph 1014.8mb 69f 70f
1:06pm 6 9 mph 1014.9mb 69f 70f